Regional Weather Roundup
Issued by NWS

Home | Current Version | Previous Version | Text Only | Print | Product List | Glossary Off
Versions: 1 2 3 4 5 6 7 8 9 10 11 12 13 14 15 16 17 18 19 20 21 22 23 24 25 26 27 28 29 30 31 32 33 34 35 36 37 38 39 40 41 42 43 44 45 46 47 48 49 50

000
ASUS45 KABQ 171101
RWRNM
WEATHER ROUNDUP FOR NEW MEXICO
NATIONAL WEATHER SERVICE ALBUQUERQUE NM
500 AM MDT WED SEP 17 2014

NOTE: "FAIR" MEANS FEW OR NO CLOUDS BELOW 12,000 FEET AGL WITH NO
       SIGNIFICANT WEATHER OR OBSTRUCTIONS TO VISION.

      THIS PRODUCT IS RELEASED AS TWO VERSIONS.  ONE VERSION NEAR
      THE TOP OF THE HOUR CONTAINING PRELIMINARY DATA FROM ALBUQUERQUE
      AND OTHER STATIONS.  A FINAL VERSION WITH ADDITIONAL DATA IS
      ISSUED ABOUT 10 MINUTES AFTER THE HOUR.

NMZ501-503-504-510>518-171200-
NORTHWEST PLATEAU/NORTHCENTRAL MOUNTAINS

CITY           SKY/WX    TMP DP  RH WIND       PRES   REMARKS
FARMINGTON     CLEAR     64  54  69 E6        30.14S
LOS ALAMOS     CLOUDY    55  54  97 N3        30.26S
SANTA FE       CLOUDY    57  51  80 CALM      30.21F
ANGEL FIRE     FAIR      39  37  91 CALM      30.35S

$$
NMZ402-403-502-505>509-171200-
WESTCENTRAL MOUNTAINS/SOUTHWEST MOUNTAINS

CITY           SKY/WX    TMP DP  RH WIND       PRES   REMARKS
GALLUP         CLOUDY    58  52  80 CALM      30.20F
GRANTS         CLOUDY    57  54  88 S6        30.23F
SILVER CITY    CLOUDY    63  59  88 E6        30.15F

$$
NMZ407-409-411-412-171200-
SOUTHERN DESERTS

CITY           SKY/WX    TMP DP  RH WIND       PRES   REMARKS
LORDSBURG      CLOUDY    66  61  82 SE9G16    30.05F
DEMING         CLOUDY    65  63  93 NE13      30.08F
LAS CRUCES     CLOUDY    64  63  94 N5        30.10S
HOLLOMAN AFB   DRIZZLE   65  65 100 NW6       30.08S
ALAMOGORDO     CLOUDY    64  64 100 CALM      30.10S
T OR C         LGT RAIN  62  62 100 E3        30.13R

$$
NMZ519>523-171200-
CENTRAL VALLEYS/CENTRAL HIGHLANDS

CITY           SKY/WX    TMP DP  RH WIND       PRES   REMARKS
ALBUQUERQUE    CLOUDY    62  55  77 CALM      30.17F
DOUBLE EAGLE   CLOUDY    58  55  89 CALM      30.19F
CLINES CORNERS LGT RAIN  54  52  93 NW7       30.23F
BELEN          LGT RAIN  59  58  97 CALM      30.16F
SOCORRO        RAIN      62  61  96 N5        30.14S

$$
NMZ524>526-539-540-171200-
SOUTHCENTRAL MOUNTAINS

CITY           SKY/WX    TMP DP  RH WIND       PRES   REMARKS
RUIDOSO        NOT AVBL

$$
NMZ527>531-171200-
NORTHEAST HIGHLANDS/NORTHEAST PLAINS

CITY           SKY/WX    TMP DP  RH WIND       PRES   REMARKS
LAS VEGAS      MOCLDY    53  46  77 NW7       30.22F
RATON          CLOUDY    52  50  93 NE5       30.17F
CLAYTON        MOCLDY    60  56  86 SW9       30.08F

$$
NMZ532>537-171200-
EASTCENTRAL PLAINS

CITY           SKY/WX    TMP DP  RH WIND       PRES   REMARKS
TUCUMCARI      MOCLDY    64  60  87 SW9       30.08F
CANNON AFB     MOCLDY    63  59  88 W6        30.13R
CLOVIS AIRPORT   N/A     63  59  88 SW3       30.15R

$$
NMZ028-029-538-171200-
SOUTHEAST PLAINS

CITY           SKY/WX    TMP DP  RH WIND       PRES   REMARKS
ROSWELL        LGT RAIN  66  65  96 N3        30.08F FOG
CARLSBAD       CLOUDY    67  32  27 N5        30.06S


$$


USA.gov is the U.S. government's official web portal to all federal, state and local government web resources and services.